User: anonymous   Login
Location: Unspecified
(34.4480°N, 0.0000°E)
Time: 20:11:33
(UTC+00:00)
Language:

NANOSAT C BR1 - Orbit

View from above orbital plane
View from above orbital plane
View from above satellite
View from above satellite

Ground track
Ground track

The orbit data is extracted from the following two-line orbital elements,

1 40024U 14033Q   20023.51107633 +.00000169 +00000-0 +23476-4 0  9996
2 40024 097.9227 310.7670 0013446 056.3314 303.9184 14.89979811303508
Epoch (UTC): 23 January 2020 12:15:56
Eccentricity: 0.0013446
inclination: 97.9227°
perigee height: 588 km
apogee height: 607 km
right ascension of ascending node: 310.7670°
argument of perigee: 56.3314°
revolutions per day: 14.89979811
mean anomaly at epoch: 303.9184°
orbit number at epoch: 30350

The dashed part of the orbit path shows where the satellite is in the earth's shadow,  

DLR